CZ-4C DEB, 45483

Orbit data source: Space-Track

CZ-4C DEB, 45483 is space debris in LEO originally from a launch on Tue, 10 Apr 2018 UTC launched from the Jiuquan Satellite Launch Center, China (JSC). Debris objects in space refer to the collection of defunct objects orbiting the Earth. Examples of debris include non-operational satellites, rocket bodies, and fragments generated from explosions, collisions, or faulty payload assembly.

Loading next visibility...
Identifier
45483, 2018-034L
Orbit
LEO
Country
Flag of CNCN / PRC
Related business
Manufacturer
Unknown
Mission
Spacecraft
Bus & Motor
Unknown
Mass
Unknown
Launch date (UTC)
2018-04-10 (7 years ago)
Launch vehicle
Unknown
Launch site
Jiuquan Satellite Launch Center, China (JSC)
Object type
Payload
Rocket body
Debris
Shape & HBR
Unknown
Radar Cross Section
Small (<0.1 m²)

Expand to show TLE details & history
Last TLE update: 2 days ago

TLE from 2 days ago
0 CZ-4C DEB
1 45483U 18034L   25258.27639607  .00000001  00000-0  12990-3 0  9997
2 45483  63.3974  94.7438 0245736   6.4416 353.9671 13.44278254327557
Epoch: 2025-09-15T06:38Z
TLE epoch observation values (Epoch: 2025-09-15T06:38:00.62Z)
Latitude
-0.00006°
Longitude
0.75781°
Altitude
912.599 km
Speed
7.486 km/s
True Right ascension
06h 18m 58s
True Declination
0° 00' 00"
Sunlit
Object was in daylight at epoch
Visualization orbit readout
Latitude
Unknown
Longitude
Unknown
Altitude
Unknown
Speed
Unknown
Apparent Right ascension
Unknown
Apparent Declination
Unknown
Sunlit
N/A
Visualization observer readout
Local Sidereal Time
04:11:27
Azimuth
Unknown
Elevation
Unknown
Doppler factor
Unknown
Orbital elements
Apogee altitude
1,275.787 km
Perigee altitude
908.641 km
Semi-major axis
7,470.351 km
Eccentricity
0.02457
Inclination
63.3974°
RAAN
94.7438°
Arg. of periapsis
6.4416°
True anomaly
353.66184°
Mean anomaly
353.9671°
Eccentric anomaly
353.81542°
Mean motion
3.36149 °/min
Orbital period
107.1 mins
BSTAR
0.0001299
Loading maneuver chart data...
Computing Atmospheric mass density...
Loading historical data...
Loading historical data...
Loading historical data...
Loading historical data...
Loading historical data...
Loading historical data...
Loading historical data...

Documentation

Showing up to 5 results
|